Location: Arena
(42.5007°N, 9.4650°E)
Time: 12:16:00
(UTC+00:00)

Cosmos 921 Rocket - Pass Details

Date: 09 April 2020
Orbit: 572 x 632 km, 75.8° (Epoch: 05 June)

Event Time Altitude Azimuth Distance (km) Brightness Sun altitude
Rises 19:00:38 0° 348° (NNW) 2,787 6.9 -11.9°
Reaches altitude 10° 19:02:54 10° 354° (N) 1,886 5.9 -12.3°
Maximum altitude 19:06:57 48° 69° (ENE) 761 3.2 -13.0°
Enters shadow 19:09:40 19° 137° (SE) 1,383 4.3 -13.4°
